| time (UTC) | temp C | wind direction | speed KPH | gust KPH | rain 1hr cm | rain 24hr cm | rain mn cm | humidity % | barometer mb |
| 20260504050017 | 12 | 0.0 | 3.2 | 0.00 | 0.10 | 0.10 | 77 | 1005.6 | |
| 20260504043016 | 12 | 0.0 | 3.2 | 0.00 | 0.10 | 0.10 | 75 | 1005.6 | |
| 20260504040015 | 13 | 0.0 | 4.8 | 0.00 | 0.10 | 0.10 | 71 | 1005.4 | |
| 20260504033015 | 15 | 0.0 | 4.8 | 0.00 | 0.10 | 0.10 | 68 | 1005.5 | |
| 20260504030016 | 16 | 0.0 | 6.4 | 0.00 | 0.10 | 0.10 | 64 | 1005.4 | |
| 20260504023015 | 16 | 0.0 | 6.4 | 0.00 | 0.10 | 0.10 | 62 | 1005.2 | |
| 20260504020016 | 16 | 0.0 | 4.8 | 0.00 | 0.10 | 0.10 | 62 | 1005.1 | |
| 20260504013057 | 16 | 0.0 | 0.0 | 0.00 | 0.10 | 0.10 | 61 | 1004.9 | |
| 20260504010015 | 18 | 0.0 | 0.0 | 0.00 | 0.10 | 0.10 | 55 | 1004.9 | |
| 20260504003017 | 20 | 270 | 1.6 | 8.0 | 0.00 | 0.10 | 0.10 | 49 | 1004.8 |
| 20260504000057 | 20 | 248 | 3.2 | 12.9 | 0.00 | 0.10 | 0.10 | 46 | 1004.9 |
| 20260503233017 | 21 | 293 | 4.8 | 17.7 | 0.00 | 0.10 | 0.10 | 46 | 1005.1 |
| 20260503230017 | 21 | 248 | 4.8 | 17.7 | 0.00 | 0.10 | 0.10 | 45 | 1005.4 |
| 20260503223057 | 21 | 248 | 6.4 | 24.1 | 0.00 | 0.10 | 0.10 | 44 | 1005.7 |
| 20260503220017 | 22 | 270 | 6.4 | 16.1 | 0.00 | 0.10 | 0.10 | 47 | 1005.7 |
| 20260503213016 | 21 | 225 | 8.0 | 20.9 | 0.00 | 0.10 | 0.10 | 47 | 1005.8 |
| 20260503210017 | 20 | 270 | 8.0 | 20.9 | 0.00 | 0.10 | 0.10 | 48 | 1006.1 |
| 20260503203018 | 20 | 248 | 8.0 | 27.4 | 0.00 | 0.10 | 0.10 | 48 | 1006.7 |
| 20260503200017 | 19 | 225 | 9.7 | 29.0 | 0.00 | 0.10 | 0.10 | 50 | 1006.9 |
| 20260503193018 | 18 | 248 | 9.7 | 33.8 | 0.00 | 0.10 | 0.10 | 51 | 1007.5 |
| 20260503190056 | 18 | 248 | 9.7 | 33.8 | 0.00 | 0.10 | 0.10 | 50 | 1008.0 |
| 20260503183016 | 16 | 225 | 9.7 | 30.6 | 0.00 | 0.10 | 0.10 | 60 | 1008.5 |
| 20260503180017 | 16 | 203 | 9.7 | 37.0 | 0.00 | 0.10 | 0.10 | 58 | 1008.7 |
| 20260503173056 | 16 | 203 | 9.7 | 29.0 | 0.00 | 0.10 | 0.10 | 57 | 1008.7 |
| 20260503053057 | 8 | 158 | 1.6 | 6.4 | 0.00 | 0.00 | 0.00 | 57 | 1014.8 |